Skip Page Navigation
NASA JPL Caltech
NASA Logo - Jet Propulsion Laboratory + View the NASA Portal
+ Center for Near-Earth Object Studies
JPL Home Earth Solar System Stars & Galaxies Technology
JPL Solar System Dynamics
BODIES ORBITS EPHEMERIDES TOOLS PHYSICAL DATA DISCOVERY FAQ SITE MAP
JPL Small-Body Database Browser
Search: [ help ]  
413400 (2004 RV343)
Classification: Main-belt Asteroid          SPK-ID: 2413400
Ephemeris | Orbit Diagram | Orbital Elements | Mission Design | Physical Parameters | Discovery Circumstances ]

[ show orbit diagram ]
Orbital Elements at Epoch 2459000.5 (2020-May-31.0) TDB
Reference: JPL 13 (heliocentric ecliptic J2000)
 Element Value Uncertainty (1-sigma)   Units 
e .2151176192563591 6.0738e-08  
a 2.217895510903348 1.2903e-08 au
q 1.740787108838454 1.3758e-07 au
i 4.361077760770082 5.8223e-06 deg
node 96.723732125335 8.909e-05 deg
peri 267.7034140624013 9.511e-05 deg
M 269.8734094195602 2.391e-05 deg
tp 2459302.537238773148
(2021-Mar-29.03723877)
8.0883e-05 TDB
period 1206.45200554088
3.30
1.0528e-05
2.882e-08
d
yr
n .2983956248127781 2.604e-09 deg/d
Q 2.695003912968243 1.5679e-08 au
  Orbit Determination Parameters
   # obs. used (total)      155  
   data-arc span      5774 days (15.81 yr)  
   first obs. used      2001-12-17  
   last obs. used      2017-10-08  
   planetary ephem.      DE431  
   SB-pert. ephem.      SB431-N16  
   condition code      0  
   norm. resid. RMS      .60363  
   source      ORB  
   producer      Otto Matic  
   solution date      2019-Jul-14 04:18:37  

Additional Information
 Earth MOID = .745473 au 
 Jupiter MOID = 2.7703 au 
 T_jup = 3.618 
[ hide covariance matrix ]
Orbital Elements at Epoch 2456909.5 (2014-Sep-09.0) TDB
Reference: JPL 13 (heliocentric ecliptic J2000)
 Element Value Uncertainty (1-sigma)   Units 
e .2143487619334972 6.0395e-08  
q 1.742445667679538 1.3665e-07 au
tp 2456888.865096949191
(2014-Aug-19.36509695)
7.8599e-05 TDB
node 96.80612032022974 8.8995e-05 deg
peri 267.4358261738108 9.5126e-05 deg
i 4.362407752238314 5.8227e-06 deg
  Orbit Determination Parameters
   # obs. used (total)      155  
   data-arc span      5774 days (15.81 yr)  
   first obs. used      2001-12-17  
   last obs. used      2017-10-08  
   planetary ephem.      DE431  
   SB-pert. ephem.      SB431-N16  
   condition code      0  
   norm. resid. RMS      .60363  
   source      ORB  
   producer      Otto Matic  
   solution date      2019-Jul-14 04:18:37  

Additional Information
 Jupiter MOID = 2.7703 au 
 T_jup = 3.618 
Orbit Covariance (6×6)
  e q tp node peri i
e 3.647586741476266E-15 -8.23157631602117E-15 1.659879541853466E-12 -3.767664792656824E-14 6.233379236115E-13 -1.767969924819921E-14
q -8.23157631602117E-15 1.867447690894327E-14 -3.646567607662772E-12 7.793125899374832E-14 -1.36019882660976E-12 4.036138764948887E-14
tp 1.659879541853466E-12 -3.646567607662772E-12 6.177867201887416E-9 -1.331698108974302E-10 2.67392898261828E-9 -1.580073545567371E-11
node -3.767664792656824E-14 7.793125899374832E-14 -1.331698108974302E-10 7.920038214825196E-9 -7.951836301039331E-9 -2.213354453507019E-10
peri 6.233379236115E-13 -1.36019882660976E-12 2.67392898261828E-9 -7.951836301039331E-9 9.048861176880429E-9 2.146478557660056E-10
i -1.767969924819921E-14 4.036138764948887E-14 -1.580073545567371E-11 -2.213354453507019E-10 2.146478557660056E-10 3.390340628539149E-11

Ephemeris | Orbit Diagram | Orbital Elements | Mission Design | Physical Parameters | Discovery Circumstances ]

Physical Parameter Table
Parameter Symbol Value Units Sigma Reference Notes
absolute magnitude H 18.0   n/a MPO423475  

413400 (2004 RV343)          Discovered 2004-Sep-13 by NEAT at Palomar
Reference: Last Updated: 2014-11-10
Ephemeris | Orbit Diagram | Orbital Elements | Mission Design | Physical Parameters | Discovery Circumstances ]
ABOUT SSD CREDITS/AWARDS PRIVACY/COPYRIGHT GLOSSARY LINKS
FirstGov 2020-Aug-12 13:35 UT
(server date/time)  
NASA Home Page
Site Manager:   Ryan S. Park
Webmaster  Alan B. Chamberlin